Content
SEND FEEDBACK

Daily
Averages
Monthly
Summary
United Kingdom

MANCHESTER, ENGLAND


Home > Europe > United Kingdom > England
Elevation: 256 feet     Latitude: 53 21N     Longitude: 002 16W

WEATHER
 
SELECT A DAY
Number of Records: 299,068;   Date Range: 7/1/96 - 11/26/14
 
SHARE

PRINT THIS DATA

[ ← Previous Day ]
WEATHER ALMANAC - SEPTEMBER 18, 2013
[ Next Day → ]
[ °C ]   °F
Weather ElementAverageHighLow
Temperature51 °F55.4 °F (12:20 pm)44.6 °F (5:50 am)
Dewpoint45.9 °F50 °F (9:50 am)42.8 °F (2:20 pm)
Humidity83.6 %100 % (1:20 am)63 % (2:20 pm)
Barometer29.63 in29.83 in (10:50 pm)29.44 in (12:50 am)
Wind Speed8.8 mph18.4 mph (2:50 pm)
Wind Gust27.6 mph (11:50 am)
Weather ElementAverage
Visibility4.9 mi
Wind DirectionWSW (237.2 °)

Weather ElementTotal
Precipitation---
Heating Degree Days15 (Base 65)
Averaged from 47 records on September 18, 2013
WEATHER CONDITIONS BREAKOUT
WIND DIRECTION BREAKOUT
WEATHER BY HOUR - SEPTEMBER 18, 2013
[ °C ]   °F
Local TimeTemperatureDewpointHumidityBarometerVisibilityWind DirectionWind SpeedGust SpeedPrecipitationEventsConditions
12:50 AM48.2 °F46.4 °F93 %29.44 inCalmMostly Cloudy
1:20 AM48.2 °F48.2 °F100 %29.44 inSSE (150°)2.3 mphMostly Cloudy
1:50 AM48.2 °F46.4 °F93 %29.44 in2.2 miSouth (190°)3.5 mphMostly Cloudy
2:20 AM48.2 °F48.2 °F100 %29.47 in1.5 miSouth (190°)2.3 mphOvercast
2:50 AM48.2 °F48.2 °F100 %29.47 in1.2 miVariable2.3 mphOvercast
3:20 AM48.2 °F48.2 °F100 %29.47 in1.2 miVariable2.3 mphDrizzle
3:50 AM48.2 °F46.4 °F93 %29.47 in2.2 miSSW (210°)3.5 mphRainLight Rain
4:20 AM46.4 °F46.4 °F100 %29.50 in1.2 miSW (220°)3.5 mphMostly Cloudy
4:50 AM46.4 °F46.4 °F100 %29.50 in0.9 miSW (220°)2.3 mphFogPatches of Fog
5:20 AM46.4 °F44.6 °F93 %29.50 in0.6 miSSW (200°)3.5 mphFogFog
5:50 AM44.6 °F44.6 °F100 %29.50 in0.2 miVariable2.3 mphFogFog
6:20 AM44.6 °F44.6 °F100 %29.53 in0.2 miSSW (200°)3.5 mphFogFog
6:50 AM44.6 °F44.6 °F100 %29.53 in2.5 miWSW (250°)4.6 mphFogPatches of Fog
7:20 AM46.4 °F44.6 °F93 %29.56 in4.3 miWSW (240°)4.6 mphScattered Clouds
7:50 AM46.4 °F46.4 °F100 %29.56 in5.0 miSW (230°)6.9 mphScattered Clouds
8:20 AM48.2 °F48.2 °F100 %29.56 in5.6 miWSW (240°)5.8 mphScattered Clouds
8:50 AM50.0 °F48.2 °F94 %29.59 in5.0 miWest (280°)4.6 mphRainLight Rain Showers
9:20 AM50.0 °F48.2 °F94 %29.59 in6.2 miWSW (240°)6.9 mphScattered Clouds
9:50 AM51.8 °F50.0 °F94 %29.59 in6.2 miWest (260°)6.9 mphScattered Clouds
10:20 AM53.6 °F48.2 °F82 %29.59 in6.2 miWNW (290°)9.2 mphScattered Clouds
10:50 AM53.6 °F48.2 °F82 %29.62 in6.2 miWNW (300°)12.7 mphScattered Clouds
11:20 AM53.6 °F46.4 °F77 %29.62 in6.2 miWNW (300°)15.0 mphScattered Clouds
11:50 AM53.6 °F46.4 °F77 %29.62 in6.2 miWest (280°)15.0 mph27.6 mphScattered Clouds
12:20 PM55.4 °F46.4 °F72 %29.62 in6.2 miWNW (290°)16.1 mphScattered Clouds
12:50 PM55.4 °F44.6 °F67 %29.65 in6.2 miWNW (290°)16.1 mphScattered Clouds
1:20 PM55.4 °F46.4 °F72 %29.65 in6.2 miWNW (300°)13.8 mphScattered Clouds
1:50 PM53.6 °F44.6 °F72 %29.65 in6.2 miWNW (300°)16.1 mphRainLight Rain Showers
2:20 PM55.4 °F42.8 °F63 %29.68 in6.2 miWNW (300°)17.3 mphRainLight Rain Showers
2:50 PM55.4 °F44.6 °F67 %29.68 in6.2 miWNW (290°)18.4 mphRainLight Rain Showers
3:20 PM55.4 °F46.4 °F72 %29.68 in6.2 miWNW (290°)17.3 mphScattered Clouds
3:50 PM55.4 °F44.6 °F67 %29.68 in6.2 miWNW (300°)15.0 mphScattered Clouds
4:20 PM55.4 °F46.4 °F72 %29.71 in6.2 miWNW (290°)18.4 mphRainLight Rain Showers
4:50 PM53.6 °F46.4 °F77 %29.71 in6.2 miWNW (290°)15.0 mphScattered Clouds
5:20 PM55.4 °F46.4 °F72 %29.71 in6.2 miWNW (290°)16.1 mphScattered Clouds
5:50 PM55.4 °F46.4 °F72 %29.74 in6.2 miWNW (300°)10.4 mphScattered Clouds
6:20 PM55.4 °F44.6 °F67 %29.74 in6.2 miWNW (300°)13.8 mphScattered Clouds
6:50 PM53.6 °F44.6 °F72 %29.74 in6.2 miWNW (300°)12.7 mphScattered Clouds
7:20 PM53.6 °F44.6 °F72 %29.77 in6.2 miWNW (300°)15.0 mphPartly Cloudy
7:50 PM53.6 °F44.6 °F72 %29.77 in6.2 miWNW (300°)9.2 mphPartly Cloudy
8:20 PM51.8 °F44.6 °F76 %29.77 in6.2 miVariable5.8 mphPartly Cloudy
8:50 PM51.8 °F44.6 °F76 %29.80 in6.2 miWest (270°)4.6 mphPartly Cloudy
9:20 PM51.8 °F44.6 °F76 %29.80 in6.2 miWNW (300°)5.8 mph19.6 mphRainLight Rain Showers
9:50 PM51.8 °F44.6 °F76 %29.80 in6.2 miWest (280°)8.1 mphScattered Clouds
10:20 PM50.0 °F44.6 °F82 %29.80 in6.2 miWest (280°)4.6 mphPartly Cloudy
10:50 PM50.0 °F44.6 °F82 %29.83 in6.2 miWest (280°)8.1 mphPartly Cloudy
11:20 PM48.2 °F42.8 °F82 %29.83 inWest (260°)5.8 mphClear
11:50 PM48.2 °F44.6 °F87 %29.83 in6.2 miWest (260°)5.8 mphMostly Cloudy
Hourly data recorded from EGCC, located miles away from Manchester, England







STORIES FROM OUR PARTNERS